W2JV-2 Weather Reports


Display with metric or nautical units.
time (UTC)temp
F
wind
direction
speed
MPH
gust
MPH
rain 1hr
in
rain 24hr
in
rain mn
in
humidity
%
barometer
mb
20260903190503 83 228 0.0 3.0 0.00 0.32 0.05 73 1012.3
20260903190003 84 356 1.0 3.0 0.00 0.32 0.05 73 1012.5
20260903185503 84 287 0.0 3.0 0.00 0.32 0.05 73 1012.5
20260903185003 84 16 0.0 3.0 0.00 0.32 0.05 74 1012.6
20260903184503 84 274 2.0 6.0 0.00 0.32 0.05 74 1012.5
20260903184005 84 239 2.0 5.0 0.00 0.32 0.05 74 1012.6
20260903183503 83 243 1.0 5.0 0.00 0.32 0.05 74 1012.5
20260903183003 83 264 1.0 3.0 0.00 0.32 0.05 74 1012.6
20260903182503 83 9 1.0 3.0 0.00 0.32 0.05 75 1012.5
20260903181503 83 262 2.0 5.0 0.00 0.32 0.05 75 1012.6
20260903181003 83 233 3.0 7.0 0.00 0.32 0.05 76 1012.6
20260903180503 82 206 1.0 3.0 0.00 0.32 0.05 76 1012.8
20260903180003 82 222 2.0 5.0 0.00 0.32 0.05 77 1012.8
20260903175504 82 222 2.0 3.0 0.00 0.32 0.05 77 1012.9
20260903175004 82 327 2.0 5.0 0.00 0.32 0.05 77 1012.9
20260903174503 82 255 2.0 3.0 0.00 0.32 0.05 76 1013.0
20260903174004 81 356 1.0 3.0 0.00 0.32 0.05 77 1013.0
20260903173503 81 294 1.0 3.0 0.00 0.32 0.05 77 1013.0
20260903173004 81 323 2.0 6.0 0.00 0.32 0.05 78 1013.1
20260903172504 81 274 2.0 5.0 0.00 0.32 0.05 79 1013.1
20260903172003 80 263 2.0 5.0 0.00 0.32 0.05 79 1013.3
20260903171502 80 242 2.0 6.0 0.00 0.32 0.05 79 1013.3
20260903171003 80 290 1.0 5.0 0.00 0.32 0.05 79 1013.2
20260903170503 80 250 3.0 5.0 0.00 0.32 0.05 81 1013.2
20260903170004 80 320 1.0 3.0 0.00 0.32 0.05 81 1013.2
20260903165503 80 241 1.0 3.0 0.00 0.32 0.05 80 1013.4
20260903165003 80 199 2.0 3.0 0.00 0.32 0.05 80 1013.4
20260903164004 80 251 2.0 6.0 0.00 0.32 0.05 82 1013.3
20260903163503 79 309 2.0 6.0 0.00 0.32 0.05 81 1013.3
20260903163004 79 323 2.0 5.0 0.00 0.32 0.05 82 1013.4
20260903162503 79 287 2.0 3.0 0.00 0.32 0.05 82 1013.4
20260903162003 78 258 1.0 3.0 0.00 0.32 0.05 82 1013.5
20260903161503 78 278 2.0 7.0 0.00 0.32 0.05 83 1013.6
20260903160504 78 226 2.0 6.0 0.00 0.32 0.05 84 1013.7
20260903160003 77 271 2.0 5.0 0.00 0.32 0.05 84 1013.7
20260903155503 77 272 2.0 6.0 0.00 0.32 0.05 85 1013.8
20260903154510 77 242 2.0 5.0 0.00 0.32 0.05 86 1013.8
20260903153503 77 202 2.0 3.0 0.00 0.32 0.05 87 1013.8
20260903153004 76 280 0.0 3.0 0.00 0.32 0.05 87 1013.8
20260903152504 76 208 2.0 3.0 0.00 0.32 0.05 87 1013.8
20260903152004 76 203 2.0 7.0 0.00 0.32 0.05 87 1013.9
20260903151503 75 196 2.0 3.0 0.00 0.32 0.05 88 1013.9
20260903150503 75 259 2.0 5.0 0.00 0.32 0.05 88 1014.1
20260903145004 75 217 3.0 5.0 0.00 0.32 0.05 88 1014.2
20260903144503 75 206 2.0 5.0 0.00 0.32 0.05 88 1014.2
20260903144003 75 240 2.0 5.0 0.00 0.32 0.05 89 1014.2
20260903143504 75 182 2.0 5.0 0.00 0.32 0.05 89 1014.0
20260903143004 75 224 2.0 3.0 0.00 0.32 0.05 89 1013.9
20260903142503 75 188 1.0 3.0 0.00 0.32 0.05 89 1013.9
20260903142004 74 266 2.0 5.0 0.00 0.32 0.05 89 1014.0
20260903141503 74 252 2.0 3.0 0.00 0.32 0.05 89 1014.1
20260903141004 74 271 2.0 3.0 0.00 0.32 0.05 89 1014.2
20260903140503 74 210 1.0 3.0 0.00 0.32 0.05 89 1014.3
20260903140004 74 214 2.0 5.0 0.00 0.32 0.05 89 1014.3
20260903135503 73 247 2.0 7.0 0.00 0.32 0.05 89 1014.2
20260903135003 73 204 1.0 2.0 0.00 0.32 0.05 89 1013.9
20260903134503 73 221 2.0 5.0 0.00 0.32 0.05 89 1014.2
20260903134003 72 222 2.0 3.0 0.00 0.32 0.05 89 1014.3
20260903133503 72 230 2.0 3.0 0.00 0.32 0.05 89 1014.3
20260903133004 73 243 2.0 3.0 0.00 0.32 0.05 89 1014.3
20260903132504 73 194 1.0 2.0 0.00 0.32 0.05 89 1014.4
20260903132003 73 228 0.0 0.0 0.00 0.32 0.05 89 1014.7
20260903131503 73 228 0.0 0.0 0.00 0.32 0.05 89 1014.7
20260903131004 73 228 0.0 0.0 0.00 0.32 0.05 89 1014.7
20260903130503 72 228 0.0 0.0 0.00 0.32 0.05 89 1014.8
20260903130003 72 228 0.0 0.0 0.00 0.32 0.05 89 1015.0
20260903125503 72 228 0.0 2.0 0.00 0.32 0.05 89 1015.1
20260903125003 72 223 1.0 3.0 0.00 0.32 0.05 89 1014.7
20260903124504 72 164 0.0 1.0 0.00 0.32 0.05 89 1014.9
20260903124003 72 172 0.0 1.0 0.00 0.32 0.05 89 1015.2
20260903123504 72 172 0.0 1.0 0.00 0.32 0.05 89 1015.1
20260903123003 72 172 0.0 1.0 0.00 0.32 0.05 89 1015.2
20260903122504 72 172 1.0 2.0 0.00 0.32 0.05 89 1015.3
20260903122004 72 172 0.0 2.0 0.00 0.32 0.05 89 1015.2
20260903121503 72 182 1.0 2.0 0.00 0.32 0.05 89 1015.1
20260903121003 72 182 0.0 2.0 0.00 0.32 0.05 89 1015.2
20260903120504 72 182 0.0 0.0 0.00 0.32 0.05 89 1015.2
20260903115004 71 182 0.0 1.0 0.00 0.32 0.05 89 1015.0
20260903114503 71 182 0.0 1.0 0.00 0.32 0.05 89 1015.1
20260903113004 71 182 0.0 2.0 0.00 0.32 0.05 89 1015.2
20260903112004 71 182 1.0 2.0 0.00 0.32 0.05 89 1015.0
20260903111504 71 182 0.0 0.0 0.00 0.32 0.05 89 1014.9
20260903111004 71 182 0.0 0.0 0.00 0.32 0.05 89 1015.1
20260903110504 71 182 0.0 0.0 0.00 0.32 0.05 89 1015.2
20260903110003 71 182 0.0 0.0 0.00 0.32 0.05 89 1015.4
20260903105503 71 182 0.0 0.0 0.00 0.32 0.05 89 1015.4
20260903104005 71 123 0.0 2.0 0.00 0.32 0.05 89 1015.4
20260903103503 71 252 2.0 3.0 0.00 0.32 0.05 89 1015.3
20260903103004 71 296 0.0 2.0 0.00 0.32 0.05 89 1014.8
20260903102505 71 172 1.0 3.0 0.00 0.32 0.05 89 1014.7
20260903102003 71 175 0.0 2.0 0.00 0.32 0.05 89 1014.8
20260903101504 71 182 0.0 2.0 0.00 0.32 0.05 89 1014.8
20260903101003 71 208 2.0 3.0 0.00 0.32 0.05 89 1014.6
20260903100003 71 243 1.0 3.0 0.00 0.32 0.05 89 1014.8
20260903095503 71 242 1.0 3.0 0.00 0.32 0.05 89 1014.6
20260903095003 71 218 1.0 3.0 0.00 0.32 0.05 89 1014.4
20260903094003 70 214 2.0 3.0 0.00 0.32 0.05 89 1014.5
20260903093004 70 203 1.0 3.0 0.00 0.32 0.05 89 1014.3
20260903092503 70 206 2.0 3.0 0.00 0.32 0.05 89 1014.3
20260903091004 70 210 0.0 0.0 0.00 0.32 0.05 89 1014.2
20260903090503 70 221 1.0 3.0 0.00 0.32 0.05 89 1014.2
20260903090004 70 199 1.0 3.0 0.00 0.32 0.05 89 1014.3
20260903085504 70 218 1.0 3.0 0.00 0.32 0.05 89 1014.5
20260903085004 70 241 2.0 5.0 0.01 0.32 0.05 89 1014.7
20260903084004 69 211 1.0 3.0 0.01 0.32 0.05 89 1014.8
20260903083503 69 232 1.0 3.0 0.01 0.32 0.05 89 1014.7
20260903083005 69 221 1.0 2.0 0.01 0.32 0.05 89 1014.7
20260903082504 69 154 1.0 2.0 0.01 0.32 0.05 89 1014.5
20260903082004 69 172 0.0 0.0 0.02 0.32 0.05 89 1014.6
20260903081503 69 216 0.0 0.0 0.02 0.32 0.05 89 1014.9
20260903081003 69 184 0.0 0.0 0.02 0.32 0.05 89 1015.0
20260903080503 69 172 0.0 0.0 0.02 0.32 0.05 89 1015.2
20260903080003 69 201 0.0 0.0 0.02 0.32 0.05 89 1015.3
20260903075003 70 232 0.0 0.0 0.01 0.31 0.04 89 1015.5
20260903074503 70 232 0.0 0.0 0.01 0.31 0.04 89 1015.6
20260903074003 70 232 0.0 0.0 0.01 0.31 0.04 89 1015.8
20260903073504 70 232 0.0 0.0 0.02 0.31 0.04 89 1015.8
20260903073003 70 232 0.0 0.0 0.02 0.31 0.04 89 1015.8
20260903072504 70 232 0.0 0.0 0.02 0.31 0.04 89 1015.9
20260903072003 70 232 0.0 0.0 0.01 0.30 0.03 89 1015.9
20260903071504 70 232 0.0 0.0 0.01 0.30 0.03 89 1016.0
20260903071003 70 232 0.0 0.0 0.01 0.30 0.03 89 1015.9
20260903070504 70 234 0.0 0.0 0.01 0.30 0.03 89 1015.8
20260903065503 70 56 0.0 0.0 0.01 0.30 0.03 89 1015.7
20260903065003 70 56 0.0 0.0 0.02 0.30 0.03 89 1015.7
20260903064503 70 56 0.0 0.0 0.02 0.30 0.03 89 1015.8
20260903064004 70 56 0.0 0.0 0.02 0.30 0.03 89 1015.8
20260903063504 70 56 0.0 0.0 0.01 0.29 0.02 89 1015.7
20260903063004 70 151 0.0 0.0 0.01 0.29 0.02 89 1015.8
20260903062003 70 151 0.0 0.0 0.02 0.29 0.02 89 1015.6
20260903061503 70 151 0.0 0.0 0.02 0.29 0.02 89 1015.7
20260903060504 70 151 0.0 0.0 0.02 0.29 0.02 89 1015.7
20260903060003 70 217 0.0 0.0 0.02 0.29 0.02 89 1016.3
20260903055503 70 278 0.0 0.0 0.02 0.29 0.02 89 1016.6
20260903055003 70 260 0.0 0.0 0.01 0.28 0.01 89 1016.7
20260903054503 70 260 0.0 0.0 0.01 0.28 0.01 89 1016.8
20260903053503 70 213 0.0 0.0 0.01 0.28 0.01 89 1017.1
20260903053003 70 213 0.0 0.0 0.01 0.28 0.01 89 1017.2
20260903052504 69 213 0.0 0.0 0.01 0.28 0.01 89 1017.1
20260903052004 69 213 0.0 0.0 0.00 0.27 0.00 89 1016.9
20260903051503 69 213 0.0 0.0 0.00 0.27 0.00 89 1017.3
20260903051003 69 213 0.0 0.0 0.00 0.27 0.00 89 1017.4
20260903050503 69 213 0.0 0.0 0.00 0.27 0.00 89 1017.4
20260903044503 69 213 0.0 0.0 0.00 0.27 0.00 89 1017.3
20260903043004 69 257 0.0 0.0 0.00 0.27 0.00 89 1017.6
20260903042503 69 257 0.0 0.0 0.00 0.27 0.00 89 1017.6
20260903042004 69 257 0.0 0.0 0.00 0.27 0.00 89 1017.6
20260903041504 69 257 0.0 0.0 0.00 0.27 0.00 89 1017.6
20260903041004 69 257 0.0 0.0 0.00 0.27 0.00 89 1017.8
20260903040503 69 257 0.0 0.0 0.00 0.27 0.00 89 1017.8
20260903040003 69 257 0.0 0.0 0.00 0.27 0.00 89 1017.9
20260903035503 69 257 0.0 0.0 0.00 0.27 0.27 89 1017.8
20260903035005 69 257 0.0 0.0 0.00 0.27 0.27 89 1017.7
20260903034003 68 257 0.0 0.0 0.00 0.27 0.27 88 1017.7
20260903033504 68 257 0.0 0.0 0.00 0.27 0.27 88 1017.5
20260903033003 68 257 0.0 0.0 0.00 0.27 0.27 89 1017.5
20260903032503 68 257 0.0 0.0 0.00 0.27 0.27 89 1017.6
20260903032003 68 257 0.0 0.0 0.00 0.27 0.27 89 1017.5
20260903031503 68 257 0.0 0.0 0.00 0.27 0.27 89 1017.6
20260903031004 68 257 0.0 0.0 0.00 0.27 0.27 89 1017.9
20260903030504 68 257 0.0 0.0 0.00 0.27 0.27 89 1018.0
20260903025504 68 257 0.0 0.0 0.00 0.27 0.27 89 1018.2
20260903025004 68 257 0.0 0.0 0.00 0.27 0.27 89 1018.2
20260903024504 68 257 0.0 0.0 0.00 0.27 0.27 89 1018.1
20260903023503 68 257 0.0 0.0 0.00 0.27 0.27 88 1018.3
20260903023003 68 257 0.0 0.0 0.00 0.27 0.27 88 1018.3
20260903022504 68 257 0.0 0.0 0.00 0.27 0.27 88 1018.1
20260903022004 68 257 0.0 0.0 0.00 0.27 0.27 88 1017.9
20260903021504 68 257 0.0 0.0 0.00 0.27 0.27 88 1017.9
20260903021003 68 257 0.0 0.0 0.00 0.27 0.27 88 1018.1
20260903020503 68 257 0.0 0.0 0.00 0.27 0.27 88 1018.0
20260903020003 68 257 0.0 0.0 0.00 0.27 0.27 88 1018.1
20260903015503 68 257 0.0 0.0 0.00 0.27 0.27 88 1018.3
20260903015004 68 257 0.0 0.0 0.00 0.27 0.27 88 1018.4
20260903014503 68 257 0.0 0.0 0.00 0.27 0.27 88 1018.6
20260903014003 68 257 0.0 0.0 0.00 0.27 0.27 88 1018.3
20260903013504 68 257 0.0 0.0 0.00 0.27 0.27 88 1018.4
20260903013003 68 257 0.0 0.0 0.00 0.27 0.27 88 1018.5
20260903012503 68 257 0.0 0.0 0.00 0.27 0.27 88 1018.6
20260903012003 68 257 0.0 0.0 0.00 0.27 0.27 88 1018.6
20260903011505 68 257 0.0 0.0 0.00 0.27 0.27 88 1018.8
20260903011004 68 257 0.0 0.0 0.00 0.27 0.27 88 1018.8
20260903010505 68 257 0.0 0.0 0.00 0.27 0.27 88 1018.8
20260903005503 68 257 0.0 0.0 0.00 0.27 0.27 88 1019.4
20260903005003 68 257 0.0 1.0 0.00 0.27 0.27 88 1019.4
20260903004503 68 257 0.0 1.0 0.00 0.27 0.27 88 1019.2
20260903004004 68 257 0.0 1.0 0.00 0.27 0.27 88 1019.1
20260903003504 68 257 0.0 1.0 0.00 0.27 0.27 88 1018.8
20260903003003 68 257 0.0 1.0 0.00 0.27 0.27 88 1018.8
20260903002503 68 257 0.0 1.0 0.00 0.27 0.27 88 1018.5
20260903002005 68 257 0.0 2.0 0.00 0.27 0.27 88 1018.5
20260903001505 68 297 0.0 2.0 0.00 0.27 0.27 88 1018.4
20260903001003 68 297 0.0 0.0 0.00 0.27 0.27 88 1018.1
20260903000504 68 297 0.0 2.0 0.00 0.27 0.27 88 1018.1
20260903000004 68 172 0.0 0.0 0.00 0.27 0.27 88 1018.1
20260902235503 68 172 0.0 0.0 0.00 0.27 0.27 88 1018.1
20260902235004 68 172 0.0 3.0 0.00 0.27 0.27 88 1018.2
20260902234504 68 255 0.0 0.0 0.00 0.27 0.27 87 1018.4
20260902234004 68 255 0.0 0.0 0.00 0.27 0.27 87 1018.4
20260902233504 68 231 0.0 0.0 0.00 0.27 0.27 87 1018.4
20260902233003 68 231 0.0 0.0 0.00 0.27 0.27 87 1018.5
20260902232503 68 226 0.0 0.0 0.00 0.27 0.27 87 1018.5
20260902232004 68 223 0.0 0.0 0.00 0.27 0.27 87 1018.5
20260902231504 68 261 0.0 0.0 0.00 0.27 0.27 87 1018.5
20260902231004 68 172 0.0 2.0 0.00 0.27 0.27 87 1018.6
20260902230503 68 100 0.0 0.0 0.00 0.27 0.27 87 1018.7
20260902230003 68 100 0.0 0.0 0.00 0.27 0.27 87 1019.0
20260902225505 68 100 0.0 0.0 0.00 0.27 0.27 87 1019.2
20260902224503 68 100 0.0 1.0 0.00 0.27 0.27 87 1019.5
20260902224004 68 100 0.0 1.0 0.00 0.27 0.27 87 1019.5
20260902223503 68 100 0.0 0.0 0.00 0.27 0.27 87 1019.5
20260902223003 68 100 0.0 0.0 0.00 0.27 0.27 87 1019.6
20260902222503 68 100 0.0 1.0 0.00 0.27 0.27 87 1019.8
20260902221504 69 100 0.0 2.0 0.00 0.27 0.27 87 1019.6
20260902221003 69 182 0.0 2.0 0.00 0.27 0.27 87 1019.6
20260902220504 69 247 0.0 0.0 0.00 0.27 0.27 87 1019.6
20260902215003 69 247 0.0 0.0 0.00 0.27 0.27 86 1019.8
20260902214504 69 247 0.0 0.0 0.00 0.27 0.27 86 1019.8
20260902214004 69 247 0.0 0.0 0.00 0.27 0.27 86 1019.7
20260902213504 69 247 0.0 0.0 0.01 0.27 0.27 86 1019.8
20260902213003 69 247 0.0 0.0 0.02 0.27 0.27 86 1019.7
20260902212504 69 247 0.0 0.0 0.02 0.27 0.27 86 1019.5
20260902212004 69 247 0.0 1.0 0.03 0.27 0.27 86 1019.3
20260902211503 69 247 0.0 1.0 0.05 0.27 0.27 85 1019.2
20260902211003 69 202 0.0 3.0 0.07 0.27 0.27 85 1018.9
20260902210005 69 237 1.0 3.0 0.19 0.27 0.27 84 1018.9
20260902205504 69 242 1.0 3.0 0.21 0.27 0.27 84 1018.8
20260902205005 69 198 0.0 2.0 0.21 0.27 0.27 83 1018.9
20260902204505 69 225 0.0 0.0 0.21 0.27 0.27 83 1019.0
20260902204004 69 229 0.0 0.0 0.24 0.27 0.27 82 1019.0
20260902203505 69 229 0.0 0.0 0.26 0.26 0.26 82 1019.2
20260902203003 69 229 0.0 0.0 0.25 0.25 0.25 81 1019.3
20260902202004 69 271 0.0 0.0 0.24 0.24 0.24 81 1019.5
20260902201505 69 271 0.0 0.0 0.22 0.22 0.22 81 1019.7
20260902201003 69 271 0.0 0.0 0.20 0.20 0.20 80 1019.8
20260902200505 70 155 0.0 0.0 0.16 0.16 0.16 79 1019.6
20260902200004 70 237 0.0 0.0 0.08 0.08 0.08 79 1019.7
20260902195504 71 141 1.0 3.0 0.06 0.06 0.06 79 1019.6
20260902195003 71 170 0.0 1.0 0.06 0.06 0.06 78 1019.6
20260902194503 72 172 0.0 0.0 0.06 0.06 0.06 77 1019.9
20260902194003 72 172 0.0 0.0 0.03 0.03 0.03 77 1019.8
20260902193503 72 172 0.0 0.0 0.00 0.00 0.00 76 1020.2
20260902193004 73 172 0.0 0.0 0.00 0.00 0.00 75 1020.2
20260902192503 73 172 0.0 1.0 0.00 0.00 0.00 75 1020.1
20260902192004 73 172 0.0 1.0 0.00 0.00 0.00 75 1019.7
20260902191504 73 172 0.0 3.0 0.00 0.00 0.00 74 1019.5
20260902191005 74 269 0.0 2.0 0.00 0.00 0.00 75 1019.4